contact:dominique.lefevre@mio.osupytheas.fr, maurice.libes@osupytheas.fr, didier.mallarino@osupytheas.fr
Project:EMSO http://www.emso-fr.org/EMSO-France
Depth: 2436.0 m
Title:EMSO Ligure Ouest : Data MII capteur MICROCAT
DateTime_Computer,Latitude,Longitude,Temperature,Conductivity,Pressure,DateTime_Instrument
DateTime_Computer,Latitude,Longitude,degC,S m-1,dbar,DateTime_Instrument
2023-12-22T00:00:35Z,42.805,6.029,13.3042,4.60141,2470.6,2023-12-22T02:03:05Z
2023-12-22T00:03:38Z,42.805,6.029,13.3046,4.60143,2470.6,2023-12-22T02:06:08Z
2023-12-22T00:06:41Z,42.805,6.029,13.3050,4.60137,2470.624,2023-12-22T02:09:11Z
2023-12-22T00:09:44Z,42.805,6.029,13.3047,4.60132,2470.624,2023-12-22T02:12:14Z
2023-12-22T00:12:47Z,42.805,6.029,13.3058,4.60150,2470.637,2023-12-22T02:15:18Z
2023-12-22T00:15:50Z,42.805,6.029,13.3056,4.60157,2470.624,2023-12-22T02:18:21Z
2023-12-22T00:18:53Z,42.805,6.029,13.3056,4.60140,2470.6,2023-12-22T02:21:24Z
2023-12-22T00:21:56Z,42.805,6.029,13.3051,4.60146,2470.624,2023-12-22T02:24:27Z
2023-12-22T00:25:00Z,42.805,6.029,13.3053,4.60139,2470.624,2023-12-22T02:27:30Z
2023-12-22T00:28:03Z,42.805,6.029,13.3044,4.60147,2470.6,2023-12-22T02:30:33Z
2023-12-22T00:31:06Z,42.805,6.029,13.3051,4.60135,2470.624,2023-12-22T02:33:36Z
2023-12-22T00:34:09Z,42.805,6.029,13.3054,4.60141,2470.628,2023-12-22T02:36:39Z
2023-12-22T00:37:12Z,42.805,6.029,13.3054,4.60152,2470.6,2023-12-22T02:39:42Z
2023-12-22T00:40:15Z,42.805,6.029,13.3064,4.60160,2470.661,2023-12-22T02:42:45Z
2023-12-22T00:43:18Z,42.805,6.029,13.3054,4.60155,2470.6,2023-12-22T02:45:48Z
2023-12-22T00:46:21Z,42.805,6.029,13.3046,4.60133,2470.6,2023-12-22T02:48:51Z
2023-12-22T00:49:24Z,42.805,6.029,13.3041,4.60137,2470.6,2023-12-22T02:51:55Z
2023-12-22T00:52:27Z,42.805,6.029,13.3046,4.60135,2470.6,2023-12-22T02:54:58Z
2023-12-22T00:55:30Z,42.805,6.029,13.3047,4.60137,2470.637,2023-12-22T02:58:01Z
2023-12-22T00:58:33Z,42.805,6.029,13.3051,4.60137,2470.637,2023-12-22T03:01:04Z
2023-12-22T01:01:37Z,42.805,6.029,13.3045,4.60129,2470.6,2023-12-22T03:04:07Z
2023-12-22T01:04:40Z,42.805,6.029,13.3046,4.60137,2470.624,2023-12-22T03:07:10Z
2023-12-22T01:07:43Z,42.805,6.029,13.3041,4.60137,2470.646,2023-12-22T03:10:13Z
2023-12-22T01:10:46Z,42.805,6.029,13.3045,4.60149,2470.624,2023-12-22T03:13:16Z
2023-12-22T01:13:49Z,42.805,6.029,13.3041,4.60141,2470.624,2023-12-22T03:16:19Z
2023-12-22T01:16:52Z,42.805,6.029,13.3042,4.60136,2470.646,2023-12-22T03:19:22Z
2023-12-22T01:19:55Z,42.805,6.029,13.3043,4.60157,2470.637,2023-12-22T03:22:25Z
2023-12-22T01:22:58Z,42.805,6.029,13.3043,4.60129,2470.661,2023-12-22T03:25:28Z
2023-12-22T01:26:01Z,42.805,6.029,13.3044,4.60137,2470.637,2023-12-22T03:28:32Z
2023-12-22T01:29:04Z,42.805,6.029,13.3043,4.60143,2470.624,2023-12-22T03:31:35Z
2023-12-22T01:32:07Z,42.805,6.029,13.3041,4.60126,2470.624,2023-12-22T03:34:38Z
2023-12-22T01:35:10Z,42.805,6.029,13.3045,4.60132,2470.624,2023-12-22T03:37:41Z
2023-12-22T01:38:13Z,42.805,6.029,13.3037,4.60130,2470.624,2023-12-22T03:40:44Z
2023-12-22T01:41:17Z,42.805,6.029,13.3040,4.60136,2470.624,2023-12-22T03:43:47Z
2023-12-22T01:44:20Z,42.805,6.029,13.3042,4.60130,2470.67,2023-12-22T03:46:50Z
2023-12-22T01:47:23Z,42.805,6.029,13.3041,4.60127,2470.684,2023-12-22T03:49:53Z
2023-12-22T01:50:26Z,42.805,6.029,13.3052,4.60156,2470.661,2023-12-22T03:52:56Z
2023-12-22T01:53:29Z,42.805,6.029,13.3045,4.60132,2470.684,2023-12-22T03:55:59Z
2023-12-22T01:56:32Z,42.805,6.029,13.3043,4.60128,2470.67,2023-12-22T03:59:02Z
2023-12-22T01:59:35Z,42.805,6.029,13.3049,4.60148,2470.646,2023-12-22T04:02:05Z
2023-12-22T02:02:38Z,42.805,6.029,13.3041,4.60153,2470.67,2023-12-22T04:05:08Z
2023-12-22T02:05:41Z,42.805,6.029,13.3047,4.60156,2470.684,2023-12-22T04:08:12Z
2023-12-22T02:08:44Z,42.805,6.029,13.3038,4.60140,2470.624,2023-12-22T04:11:15Z
2023-12-22T02:11:47Z,42.805,6.029,13.3038,4.60127,2470.637,2023-12-22T04:14:18Z
2023-12-22T02:14:50Z,42.805,6.029,13.3041,4.60132,2470.693,2023-12-22T04:17:21Z
2023-12-22T02:17:54Z,42.805,6.029,13.3041,4.60135,2470.661,2023-12-22T04:20:24Z
2023-12-22T02:20:57Z,42.805,6.029,13.3048,4.60152,2470.646,2023-12-22T04:23:27Z
2023-12-22T02:24:00Z,42.805,6.029,13.3045,4.60138,2470.67,2023-12-22T04:26:30Z
2023-12-22T02:27:03Z,42.805,6.029,13.3046,4.60143,2470.684,2023-12-22T04:29:33Z
2023-12-22T02:30:06Z,42.805,6.029,13.3039,4.60131,2470.646,2023-12-22T04:32:36Z
2023-12-22T02:33:09Z,42.805,6.029,13.3048,4.60138,2470.707,2023-12-22T04:35:39Z
2023-12-22T02:36:12Z,42.805,6.029,13.3039,4.60160,2470.646,2023-12-22T04:38:42Z
2023-12-22T02:39:15Z,42.805,6.029,13.3037,4.60129,2470.661,2023-12-22T04:41:46Z
2023-12-22T02:42:18Z,42.805,6.029,13.3049,4.60133,2470.646,2023-12-22T04:44:49Z
2023-12-22T02:45:21Z,42.805,6.029,13.3056,4.60138,2470.67,2023-12-22T04:47:52Z
2023-12-22T02:48:24Z,42.805,6.029,13.3052,4.60167,2470.67,2023-12-22T04:50:55Z
2023-12-22T02:51:27Z,42.805,6.029,13.3046,4.60149,2470.661,2023-12-22T04:53:58Z
2023-12-22T02:54:31Z,42.805,6.029,13.3048,4.60138,2470.646,2023-12-22T04:57:01Z
2023-12-22T02:57:34Z,42.805,6.029,13.3041,4.60139,2470.684,2023-12-22T05:00:04Z
2023-12-22T03:00:37Z,42.805,6.029,13.3042,4.60136,2470.646,2023-12-22T05:03:07Z
2023-12-22T03:03:40Z,42.805,6.029,13.3041,4.60135,2470.73,2023-12-22T05:06:10Z
2023-12-22T03:06:43Z,42.805,6.029,13.3038,4.60135,2470.646,2023-12-22T05:09:13Z
2023-12-22T03:09:46Z,42.805,6.029,13.3039,4.60132,2470.684,2023-12-22T05:12:16Z
2023-12-22T03:12:49Z,42.805,6.029,13.3040,4.60135,2470.661,2023-12-22T05:15:19Z
2023-12-22T03:15:52Z,42.805,6.029,13.3042,4.60140,2470.646,2023-12-22T05:18:23Z
2023-12-22T03:18:55Z,42.805,6.029,13.3042,4.60147,2470.646,2023-12-22T05:21:26Z
2023-12-22T03:21:58Z,42.805,6.029,13.3039,4.60145,2470.684,2023-12-22T05:24:29Z
2023-12-22T03:25:01Z,42.805,6.029,13.3042,4.60137,2470.693,2023-12-22T05:27:32Z
2023-12-22T03:28:04Z,42.805,6.029,13.3048,4.60142,2470.67,2023-12-22T05:30:35Z
2023-12-22T03:31:08Z,42.805,6.029,13.3052,4.60175,2470.67,2023-12-22T05:33:38Z
2023-12-22T03:34:11Z,42.805,6.029,13.3042,4.60157,2470.646,2023-12-22T05:36:41Z
2023-12-22T03:37:14Z,42.805,6.029,13.3053,4.60166,2470.661,2023-12-22T05:39:44Z
2023-12-22T03:40:17Z,42.805,6.029,13.3046,4.60137,2470.624,2023-12-22T05:42:47Z
2023-12-22T03:43:20Z,42.805,6.029,13.3043,4.60137,2470.661,2023-12-22T05:45:50Z
2023-12-22T03:46:23Z,42.805,6.029,13.3052,4.60136,2470.67,2023-12-22T05:48:53Z
2023-12-22T03:49:26Z,42.805,6.029,13.3048,4.60145,2470.624,2023-12-22T05:51:56Z
2023-12-22T03:52:29Z,42.805,6.029,13.3058,4.60157,2470.624,2023-12-22T05:55:00Z
2023-12-22T03:55:32Z,42.805,6.029,13.3046,4.60133,2470.684,2023-12-22T05:58:03Z
2023-12-22T03:58:35Z,42.805,6.029,13.3048,4.60147,2470.646,2023-12-22T06:01:06Z
2023-12-22T04:01:38Z,42.805,6.029,13.3054,4.60146,2470.646,2023-12-22T06:04:09Z
2023-12-22T04:04:41Z,42.805,6.029,13.3043,4.60144,2470.67,2023-12-22T06:07:12Z
2023-12-22T04:07:45Z,42.805,6.029,13.3042,4.60139,2470.67,2023-12-22T06:10:15Z
2023-12-22T04:10:48Z,42.805,6.029,13.3046,4.60193,2470.624,2023-12-22T06:13:18Z
2023-12-22T04:13:51Z,42.805,6.029,13.3046,4.60167,2470.646,2023-12-22T06:16:21Z
2023-12-22T04:16:54Z,42.805,6.029,13.3054,4.60156,2470.624,2023-12-22T06:19:24Z
2023-12-22T04:19:57Z,42.805,6.029,13.3056,4.60175,2470.67,2023-12-22T06:22:27Z
2023-12-22T04:23:00Z,42.805,6.029,13.3048,4.60155,2470.633,2023-12-22T06:25:30Z
2023-12-22T04:26:03Z,42.805,6.029,13.3056,4.60174,2470.684,2023-12-22T06:28:33Z
2023-12-22T04:29:06Z,42.805,6.029,13.3053,4.60181,2470.67,2023-12-22T06:31:37Z
2023-12-22T04:32:09Z,42.805,6.029,13.3045,4.60162,2470.67,2023-12-22T06:34:40Z
2023-12-22T04:35:12Z,42.805,6.029,13.3063,4.60166,2470.661,2023-12-22T06:37:43Z
2023-12-22T04:38:15Z,42.805,6.029,13.3046,4.60155,2470.67,2023-12-22T06:40:46Z
2023-12-22T04:41:19Z,42.805,6.029,13.3047,4.60168,2470.661,2023-12-22T06:43:49Z
2023-12-22T04:44:22Z,42.805,6.029,13.3044,4.60144,2470.646,2023-12-22T06:46:52Z
2023-12-22T04:47:25Z,42.805,6.029,13.3048,4.60161,2470.646,2023-12-22T06:49:55Z
2023-12-22T04:50:28Z,42.805,6.029,13.3046,4.60136,2470.717,2023-12-22T06:52:58Z
2023-12-22T04:53:31Z,42.805,6.029,13.3043,4.60145,2470.67,2023-12-22T06:56:01Z
2023-12-22T04:56:34Z,42.805,6.029,13.3037,4.60133,2470.661,2023-12-22T06:59:04Z
2023-12-22T04:59:37Z,42.805,6.029,13.3043,4.60135,2470.693,2023-12-22T07:02:07Z
2023-12-22T05:02:40Z,42.805,6.029,13.3043,4.60147,2470.67,2023-12-22T07:05:10Z
2023-12-22T05:05:43Z,42.805,6.029,13.3049,4.60149,2470.67,2023-12-22T07:08:14Z
2023-12-22T05:08:46Z,42.805,6.029,13.3042,4.60134,2470.661,2023-12-22T07:11:17Z
2023-12-22T05:11:49Z,42.805,6.029,13.3039,4.60139,2470.684,2023-12-22T07:14:20Z
2023-12-22T05:14:52Z,42.805,6.029,13.3047,4.60142,2470.661,2023-12-22T07:17:23Z
2023-12-22T05:17:56Z,42.805,6.029,13.3042,4.60132,2470.67,2023-12-22T07:20:26Z
2023-12-22T05:20:59Z,42.805,6.029,13.3047,4.60166,2470.661,2023-12-22T07:23:29Z
2023-12-22T05:24:02Z,42.805,6.029,13.3051,4.60152,2470.624,2023-12-22T07:26:32Z
2023-12-22T05:27:05Z,42.805,6.029,13.3042,4.60137,2470.624,2023-12-22T07:29:35Z
2023-12-22T05:30:08Z,42.805,6.029,13.3042,4.60131,2470.67,2023-12-22T07:32:38Z
2023-12-22T05:33:11Z,42.805,6.029,13.3048,4.60155,2470.624,2023-12-22T07:35:41Z
2023-12-22T05:36:14Z,42.805,6.029,13.3061,4.60171,2470.67,2023-12-22T07:38:44Z
2023-12-22T05:39:17Z,42.805,6.029,13.3048,4.60147,2470.67,2023-12-22T07:41:47Z
2023-12-22T05:42:20Z,42.805,6.029,13.3062,4.60163,2470.684,2023-12-22T07:44:51Z
2023-12-22T05:45:23Z,42.805,6.029,13.3051,4.60157,2470.646,2023-12-22T07:47:54Z
2023-12-22T05:48:26Z,42.805,6.029,13.3041,4.60152,2470.67,2023-12-22T07:50:57Z
2023-12-22T05:51:29Z,42.805,6.029,13.3051,4.60177,2470.67,2023-12-22T07:54:00Z
2023-12-22T05:54:33Z,42.805,6.029,13.3040,4.60165,2470.646,2023-12-22T07:57:03Z
2023-12-22T05:57:36Z,42.805,6.029,13.3057,4.60167,2470.684,2023-12-22T08:00:06Z
2023-12-22T06:00:39Z,42.805,6.029,13.3073,4.60177,2470.646,2023-12-22T08:03:09Z
2023-12-22T06:03:42Z,42.805,6.029,13.3043,4.60155,2470.646,2023-12-22T08:06:12Z
2023-12-22T06:06:45Z,42.805,6.029,13.3041,4.60157,2470.67,2023-12-22T08:09:15Z
2023-12-22T06:09:48Z,42.805,6.029,13.3045,4.60148,2470.637,2023-12-22T08:12:18Z
2023-12-22T06:12:51Z,42.805,6.029,13.3061,4.60185,2470.646,2023-12-22T08:15:21Z
2023-12-22T06:15:54Z,42.805,6.029,13.3047,4.60137,2470.646,2023-12-22T08:18:24Z
2023-12-22T06:18:57Z,42.805,6.029,13.3058,4.60168,2470.646,2023-12-22T08:21:28Z
2023-12-22T06:22:00Z,42.805,6.029,13.3048,4.60147,2470.633,2023-12-22T08:24:31Z
2023-12-22T06:25:03Z,42.805,6.029,13.3046,4.60147,2470.637,2023-12-22T08:27:34Z
2023-12-22T06:28:06Z,42.805,6.029,13.3046,4.60141,2470.646,2023-12-22T08:30:37Z
2023-12-22T06:31:10Z,42.805,6.029,13.3041,4.60159,2470.646,2023-12-22T08:33:40Z
2023-12-22T06:34:13Z,42.805,6.029,13.3058,4.60150,2470.637,2023-12-22T08:36:43Z
2023-12-22T06:37:16Z,42.805,6.029,13.3051,4.60144,2470.646,2023-12-22T08:39:46Z
2023-12-22T06:40:19Z,42.805,6.029,13.3061,4.60168,2470.661,2023-12-22T08:42:49Z
2023-12-22T06:43:22Z,42.805,6.029,13.3041,4.60149,2470.637,2023-12-22T08:45:52Z
2023-12-22T06:46:25Z,42.805,6.029,13.3051,4.60150,2470.67,2023-12-22T08:48:55Z
2023-12-22T06:49:28Z,42.805,6.029,13.3053,4.60135,2470.624,2023-12-22T08:51:58Z
2023-12-22T06:52:31Z,42.805,6.029,13.3053,4.60161,2470.637,2023-12-22T08:55:01Z
2023-12-22T06:55:34Z,42.805,6.029,13.3054,4.60204,2470.637,2023-12-22T08:58:05Z
2023-12-22T06:58:37Z,42.805,6.029,13.3059,4.60162,2470.624,2023-12-22T09:01:08Z
2023-12-22T07:01:40Z,42.805,6.029,13.3067,4.60204,2470.624,2023-12-22T09:04:11Z
2023-12-22T07:04:43Z,42.805,6.029,13.3050,4.60180,2470.661,2023-12-22T09:07:14Z
2023-12-22T07:07:47Z,42.805,6.029,13.3051,4.60157,2470.637,2023-12-22T09:10:17Z
2023-12-22T07:10:50Z,42.805,6.029,13.3052,4.60179,2470.661,2023-12-22T09:13:20Z
2023-12-22T07:13:53Z,42.805,6.029,13.3043,4.60180,2470.637,2023-12-22T09:16:23Z
2023-12-22T07:16:56Z,42.805,6.029,13.3067,4.60189,2470.661,2023-12-22T09:19:26Z
2023-12-22T07:19:59Z,42.805,6.029,13.3059,4.60170,2470.624,2023-12-22T09:22:29Z
2023-12-22T07:23:02Z,42.805,6.029,13.3063,4.60175,2470.624,2023-12-22T09:25:32Z
2023-12-22T07:26:05Z,42.805,6.029,13.3073,4.60198,2470.624,2023-12-22T09:28:35Z
2023-12-22T07:29:08Z,42.805,6.029,13.3046,4.60198,2470.6,2023-12-22T09:31:39Z
2023-12-22T07:32:12Z,42.805,6.029,13.3066,4.60147,2470.624,2023-12-22T09:34:42Z
2023-12-22T07:35:15Z,42.805,6.029,13.3053,4.60193,2470.591,2023-12-22T09:37:45Z
2023-12-22T07:38:18Z,42.805,6.029,13.3054,4.60201,2470.577,2023-12-22T09:40:48Z
2023-12-22T07:41:21Z,42.805,6.029,13.3048,4.60187,2470.661,2023-12-22T09:43:51Z
2023-12-22T07:44:24Z,42.805,6.029,13.3051,4.60178,2470.6,2023-12-22T09:46:54Z
2023-12-22T07:47:27Z,42.805,6.029,13.3046,4.60195,2470.614,2023-12-22T09:49:58Z
2023-12-22T07:50:30Z,42.805,6.029,13.3053,4.60170,2470.637,2023-12-22T09:53:01Z
2023-12-22T07:53:33Z,42.805,6.029,13.3056,4.60154,2470.624,2023-12-22T09:56:04Z
2023-12-22T07:56:36Z,42.805,6.029,13.3041,4.60162,2470.637,2023-12-22T09:59:07Z
2023-12-22T07:59:40Z,42.805,6.029,13.3063,4.60168,2470.6,2023-12-22T10:02:10Z
2023-12-22T08:02:43Z,42.805,6.029,13.3049,4.60194,2470.6,2023-12-22T10:05:13Z
2023-12-22T08:05:46Z,42.805,6.029,13.3067,4.60189,2470.6,2023-12-22T10:08:16Z
2023-12-22T08:08:49Z,42.805,6.029,13.3053,4.60193,2470.577,2023-12-22T10:11:19Z
2023-12-22T08:11:52Z,42.805,6.029,13.3082,4.60183,2470.577,2023-12-22T10:14:22Z
2023-12-22T08:14:55Z,42.805,6.029,13.3055,4.60193,2470.6,2023-12-22T10:17:25Z
2023-12-22T08:17:58Z,42.805,6.029,13.3072,4.60175,2470.577,2023-12-22T10:20:28Z
2023-12-22T08:21:01Z,42.805,6.029,13.3074,4.60183,2470.577,2023-12-22T10:23:32Z
2023-12-22T08:24:04Z,42.805,6.029,13.3059,4.60164,2470.6,2023-12-22T10:26:35Z
2023-12-22T08:27:07Z,42.805,6.029,13.3056,4.60193,2470.577,2023-12-22T10:29:38Z
2023-12-22T08:30:10Z,42.805,6.029,13.3054,4.60171,2470.6,2023-12-22T10:32:41Z
2023-12-22T08:33:13Z,42.805,6.029,13.3048,4.60182,2470.624,2023-12-22T10:35:44Z
2023-12-22T08:36:17Z,42.805,6.029,13.3066,4.60208,2470.624,2023-12-22T10:38:47Z
2023-12-22T08:39:20Z,42.805,6.029,13.3068,4.60191,2470.6,2023-12-22T10:41:50Z
2023-12-22T08:42:23Z,42.805,6.029,13.3054,4.60200,2470.577,2023-12-22T10:44:53Z
2023-12-22T08:45:26Z,42.805,6.029,13.3064,4.60188,2470.577,2023-12-22T10:47:56Z
2023-12-22T08:48:29Z,42.805,6.029,13.3051,4.60179,2470.577,2023-12-22T10:50:59Z
2023-12-22T08:51:32Z,42.805,6.029,13.3074,4.60152,2470.624,2023-12-22T10:54:02Z
2023-12-22T08:54:35Z,42.805,6.029,13.3061,4.60183,2470.591,2023-12-22T10:57:06Z
2023-12-22T08:57:38Z,42.805,6.029,13.3056,4.60201,2470.614,2023-12-22T11:00:09Z
2023-12-22T09:00:41Z,42.805,6.029,13.3058,4.60175,2470.614,2023-12-22T11:03:12Z
2023-12-22T09:03:44Z,42.805,6.029,13.3050,4.60175,2470.6,2023-12-22T11:06:15Z
2023-12-22T09:06:47Z,42.805,6.029,13.3057,4.60180,2470.586,2023-12-22T11:09:18Z
2023-12-22T09:09:51Z,42.805,6.029,13.3052,4.60188,2470.6,2023-12-22T11:12:21Z
2023-12-22T09:12:54Z,42.805,6.029,13.3052,4.60196,2470.637,2023-12-22T11:15:24Z
2023-12-22T09:15:57Z,42.805,6.029,13.3055,4.60193,2470.6,2023-12-22T11:18:27Z
2023-12-22T09:19:00Z,42.805,6.029,13.3044,4.60171,2470.577,2023-12-22T11:21:30Z
2023-12-22T09:22:03Z,42.805,6.029,13.3055,4.60175,2470.614,2023-12-22T11:24:33Z
2023-12-22T09:25:06Z,42.805,6.029,13.3055,4.60181,2470.614,2023-12-22T11:27:36Z
2023-12-22T09:28:09Z,42.805,6.029,13.3057,4.60182,2470.591,2023-12-22T11:30:39Z
2023-12-22T09:31:11Z,42.805,6.029,13.3054,4.60167,2470.577,2023-12-22T11:33:41Z
2023-12-22T09:34:14Z,42.805,6.029,13.3048,4.60166,2470.577,2023-12-22T11:36:44Z
2023-12-22T09:37:17Z,42.805,6.029,13.3050,4.60166,2470.614,2023-12-22T11:39:47Z
2023-12-22T09:40:20Z,42.805,6.029,13.3057,4.60151,2470.577,2023-12-22T11:42:51Z
2023-12-22T09:43:23Z,42.805,6.029,13.3056,4.60184,2470.553,2023-12-22T11:45:54Z
2023-12-22T09:46:26Z,42.805,6.029,13.3053,4.60168,2470.591,2023-12-22T11:48:57Z
2023-12-22T09:49:29Z,42.805,6.029,13.3051,4.60176,2470.577,2023-12-22T11:52:00Z
2023-12-22T09:52:33Z,42.805,6.029,13.3044,4.60160,2470.577,2023-12-22T11:55:03Z
2023-12-22T09:55:36Z,42.805,6.029,13.3058,4.60181,2470.6,2023-12-22T11:58:06Z
2023-12-22T09:58:39Z,42.805,6.029,13.3054,4.60157,2470.6,2023-12-22T12:01:09Z
2023-12-22T10:01:42Z,42.805,6.029,13.3050,4.60185,2470.577,2023-12-22T12:04:12Z
2023-12-22T10:04:45Z,42.805,6.029,13.3060,4.60188,2470.6,2023-12-22T12:07:15Z
2023-12-22T10:07:48Z,42.805,6.029,13.3052,4.60195,2470.614,2023-12-22T12:10:18Z
2023-12-22T10:10:51Z,42.805,6.029,13.3061,4.60175,2470.6,2023-12-22T12:13:21Z
2023-12-22T10:13:54Z,42.805,6.029,13.3054,4.60180,2470.577,2023-12-22T12:16:24Z
2023-12-22T10:16:57Z,42.805,6.029,13.3067,4.60178,2470.6,2023-12-22T12:19:28Z
2023-12-22T10:20:00Z,42.805,6.029,13.3065,4.60153,2470.577,2023-12-22T12:22:31Z
2023-12-22T10:23:03Z,42.805,6.029,13.3058,4.60173,2470.6,2023-12-22T12:25:34Z
2023-12-22T10:26:07Z,42.805,6.029,13.3045,4.60153,2470.614,2023-12-22T12:28:37Z
2023-12-22T10:29:10Z,42.805,6.029,13.3052,4.60172,2470.6,2023-12-22T12:31:40Z
2023-12-22T10:32:13Z,42.805,6.029,13.3056,4.60165,2470.577,2023-12-22T12:34:43Z
2023-12-22T10:35:16Z,42.805,6.029,13.3051,4.60164,2470.614,2023-12-22T12:37:46Z
2023-12-22T10:38:19Z,42.805,6.029,13.3048,4.60167,2470.591,2023-12-22T12:40:49Z
2023-12-22T10:41:22Z,42.805,6.029,13.3058,4.60190,2470.6,2023-12-22T12:43:52Z
2023-12-22T10:44:25Z,42.805,6.029,13.3056,4.60187,2470.624,2023-12-22T12:46:55Z
2023-12-22T10:47:28Z,42.805,6.029,13.3047,4.60178,2470.637,2023-12-22T12:49:59Z
2023-12-22T10:50:31Z,42.805,6.029,13.3057,4.60173,2470.6,2023-12-22T12:53:02Z
2023-12-22T10:53:34Z,42.805,6.029,13.3058,4.60185,2470.577,2023-12-22T12:56:05Z
2023-12-22T10:56:37Z,42.805,6.029,13.3046,4.60185,2470.624,2023-12-22T12:59:08Z
2023-12-22T10:59:40Z,42.805,6.029,13.3056,4.60173,2470.6,2023-12-22T13:02:11Z
2023-12-22T11:02:44Z,42.805,6.029,13.3051,4.60178,2470.6,2023-12-22T13:05:14Z
2023-12-22T11:05:47Z,42.805,6.029,13.3058,4.60157,2470.614,2023-12-22T13:08:17Z
2023-12-22T11:08:50Z,42.805,6.029,13.3050,4.60181,2470.624,2023-12-22T13:11:20Z
2023-12-22T11:11:53Z,42.805,6.029,13.3047,4.60165,2470.6,2023-12-22T13:14:23Z
2023-12-22T11:14:56Z,42.805,6.029,13.3044,4.60165,2470.6,2023-12-22T13:17:26Z
2023-12-22T11:17:59Z,42.805,6.029,13.3049,4.60175,2470.624,2023-12-22T13:20:29Z
2023-12-22T11:21:02Z,42.805,6.029,13.3053,4.60158,2470.6,2023-12-22T13:23:32Z
2023-12-22T11:24:05Z,42.805,6.029,13.3054,4.60167,2470.577,2023-12-22T13:26:36Z
2023-12-22T11:27:08Z,42.805,6.029,13.3058,4.60163,2470.637,2023-12-22T13:29:39Z
2023-12-22T11:30:10Z,42.805,6.029,13.3055,4.60173,2470.6,2023-12-22T13:32:40Z
2023-12-22T11:33:13Z,42.805,6.029,13.3056,4.60185,2470.591,2023-12-22T13:35:44Z
2023-12-22T11:36:16Z,42.805,6.029,13.3063,4.60175,2470.577,2023-12-22T13:38:47Z
2023-12-22T11:39:19Z,42.805,6.029,13.3058,4.60184,2470.637,2023-12-22T13:41:50Z
2023-12-22T11:42:22Z,42.805,6.029,13.3058,4.60188,2470.6,2023-12-22T13:44:53Z
2023-12-22T11:45:25Z,42.805,6.029,13.3048,4.60157,2470.637,2023-12-22T13:47:56Z
2023-12-22T11:48:29Z,42.805,6.029,13.3040,4.60152,2470.646,2023-12-22T13:50:59Z
2023-12-22T11:51:32Z,42.805,6.029,13.3049,4.60183,2470.6,2023-12-22T13:54:02Z
2023-12-22T11:54:35Z,42.805,6.029,13.3046,4.60186,2470.614,2023-12-22T13:57:05Z
2023-12-22T11:57:38Z,42.805,6.029,13.3054,4.60185,2470.637,2023-12-22T14:00:08Z
2023-12-22T12:00:41Z,42.805,6.029,13.3068,4.60167,2470.591,2023-12-22T14:03:11Z
2023-12-22T12:03:44Z,42.805,6.029,13.3056,4.60155,2470.624,2023-12-22T14:06:14Z
2023-12-22T12:06:47Z,42.805,6.029,13.3057,4.60185,2470.637,2023-12-22T14:09:17Z
2023-12-22T12:09:50Z,42.805,6.029,13.3061,4.60176,2470.646,2023-12-22T14:12:21Z
2023-12-22T12:12:53Z,42.805,6.029,13.3046,4.60174,2470.646,2023-12-22T14:15:24Z
2023-12-22T12:15:56Z,42.805,6.029,13.3052,4.60150,2470.6,2023-12-22T14:18:27Z
2023-12-22T12:18:59Z,42.805,6.029,13.3048,4.60159,2470.6,2023-12-22T14:21:30Z
2023-12-22T12:22:03Z,42.805,6.029,13.3043,4.60140,2470.624,2023-12-22T14:24:33Z
2023-12-22T12:25:06Z,42.805,6.029,13.3056,4.60146,2470.67,2023-12-22T14:27:36Z
2023-12-22T12:28:09Z,42.805,6.029,13.3049,4.60154,2470.646,2023-12-22T14:30:39Z
2023-12-22T12:31:12Z,42.805,6.029,13.3054,4.60162,2470.624,2023-12-22T14:33:42Z
2023-12-22T12:34:15Z,42.805,6.029,13.3046,4.60165,2470.646,2023-12-22T14:36:45Z
2023-12-22T12:37:18Z,42.805,6.029,13.3048,4.60162,2470.67,2023-12-22T14:39:48Z
2023-12-22T12:40:21Z,42.805,6.029,13.3046,4.60157,2470.637,2023-12-22T14:42:51Z
2023-12-22T12:43:24Z,42.805,6.029,13.3046,4.60164,2470.637,2023-12-22T14:45:55Z
2023-12-22T12:46:27Z,42.805,6.029,13.3048,4.60167,2470.646,2023-12-22T14:48:58Z
2023-12-22T12:49:30Z,42.805,6.029,13.3048,4.60173,2470.67,2023-12-22T14:52:01Z
2023-12-22T12:52:33Z,42.805,6.029,13.3051,4.60174,2470.661,2023-12-22T14:55:04Z
2023-12-22T12:55:36Z,42.805,6.029,13.3056,4.60161,2470.624,2023-12-22T14:58:07Z
2023-12-22T12:58:40Z,42.805,6.029,13.3050,4.60156,2470.67,2023-12-22T15:01:10Z
2023-12-22T13:01:43Z,42.805,6.029,13.3046,4.60144,2470.633,2023-12-22T15:04:13Z
2023-12-22T13:04:46Z,42.805,6.029,13.3044,4.60162,2470.646,2023-12-22T15:07:16Z
2023-12-22T13:07:49Z,42.805,6.029,13.3049,4.60173,2470.661,2023-12-22T15:10:19Z
2023-12-22T13:10:52Z,42.805,6.029,13.3055,4.60153,2470.646,2023-12-22T15:13:22Z
2023-12-22T13:13:55Z,42.805,6.029,13.3054,4.60155,2470.646,2023-12-22T15:16:25Z
2023-12-22T13:16:58Z,42.805,6.029,13.3048,4.60154,2470.707,2023-12-22T15:19:28Z
2023-12-22T13:20:01Z,42.805,6.029,13.3048,4.60147,2470.661,2023-12-22T15:22:32Z
2023-12-22T13:23:04Z,42.805,6.029,13.3048,4.60155,2470.67,2023-12-22T15:25:35Z
2023-12-22T13:26:07Z,42.805,6.029,13.3048,4.60149,2470.684,2023-12-22T15:28:38Z
2023-12-22T13:29:10Z,42.805,6.029,13.3044,4.60143,2470.624,2023-12-22T15:31:41Z
2023-12-22T13:32:14Z,42.805,6.029,13.3044,4.60166,2470.684,2023-12-22T15:34:44Z
2023-12-22T13:35:17Z,42.805,6.029,13.3048,4.60175,2470.646,2023-12-22T15:37:47Z
2023-12-22T13:38:20Z,42.805,6.029,13.3042,4.60139,2470.67,2023-12-22T15:40:50Z
2023-12-22T13:41:23Z,42.805,6.029,13.3044,4.60156,2470.67,2023-12-22T15:43:53Z
2023-12-22T13:44:26Z,42.805,6.029,13.3055,4.60147,2470.717,2023-12-22T15:46:56Z
2023-12-22T13:47:29Z,42.805,6.029,13.3048,4.60145,2470.67,2023-12-22T15:49:59Z
2023-12-22T13:50:32Z,42.805,6.029,13.3047,4.60149,2470.684,2023-12-22T15:53:02Z
2023-12-22T13:53:35Z,42.805,6.029,13.3043,4.60139,2470.661,2023-12-22T15:56:06Z
2023-12-22T13:56:38Z,42.805,6.029,13.3047,4.60146,2470.693,2023-12-22T15:59:09Z
2023-12-22T13:59:41Z,42.805,6.029,13.3047,4.60152,2470.693,2023-12-22T16:02:12Z
2023-12-22T14:02:44Z,42.805,6.029,13.3042,4.60144,2470.661,2023-12-22T16:05:15Z
2023-12-22T14:05:47Z,42.805,6.029,13.3047,4.60146,2470.67,2023-12-22T16:08:18Z
2023-12-22T14:08:51Z,42.805,6.029,13.3054,4.60160,2470.661,2023-12-22T16:11:21Z
2023-12-22T14:11:54Z,42.805,6.029,13.3055,4.60155,2470.67,2023-12-22T16:14:24Z
2023-12-22T14:14:57Z,42.805,6.029,13.3051,4.60153,2470.67,2023-12-22T16:17:27Z
2023-12-22T14:18:00Z,42.805,6.029,13.3043,4.60147,2470.67,2023-12-22T16:20:30Z
2023-12-22T14:21:03Z,42.805,6.029,13.3054,4.60150,2470.67,2023-12-22T16:23:33Z
2023-12-22T14:24:06Z,42.805,6.029,13.3046,4.60148,2470.693,2023-12-22T16:26:36Z
2023-12-22T14:27:09Z,42.805,6.029,13.3050,4.60165,2470.693,2023-12-22T16:29:40Z
2023-12-22T14:30:12Z,42.805,6.029,13.3045,4.60152,2470.67,2023-12-22T16:32:43Z
2023-12-22T14:33:15Z,42.805,6.029,13.3048,4.60140,2470.707,2023-12-22T16:35:46Z
2023-12-22T14:36:18Z,42.805,6.029,13.3048,4.60152,2470.693,2023-12-22T16:38:49Z
2023-12-22T14:39:21Z,42.805,6.029,13.3051,4.60169,2470.67,2023-12-22T16:41:52Z
2023-12-22T14:42:25Z,42.805,6.029,13.3043,4.60169,2470.67,2023-12-22T16:44:55Z
2023-12-22T14:45:28Z,42.805,6.029,13.3046,4.60163,2470.693,2023-12-22T16:47:58Z
2023-12-22T14:48:31Z,42.805,6.029,13.3047,4.60145,2470.707,2023-12-22T16:51:01Z
2023-12-22T14:51:34Z,42.805,6.029,13.3048,4.60147,2470.684,2023-12-22T16:54:04Z
2023-12-22T14:54:37Z,42.805,6.029,13.3048,4.60147,2470.67,2023-12-22T16:57:07Z
2023-12-22T14:57:40Z,42.805,6.029,13.3041,4.60144,2470.707,2023-12-22T17:00:10Z
2023-12-22T15:00:43Z,42.805,6.029,13.3048,4.60165,2470.707,2023-12-22T17:03:13Z